GFSSW_con_sbcape_132.txt.gz
CAPE
79 84 102 101 122 104 77 76 61 57 44 23 0 0 11 20 10 6 1 0 0 0 0 0 0 0 0 0 0 0 0 0 0 0 0 0 0 0 0 0 0 0 0 4 72
79 84 70 96 97 127 106 108 89 85 63 43 27 11 15 36 38 27 0 0 0 0 0 0 0 0 0 0 0 0 0 0 0 0 0 0 0 0 0 0 0 0 0 32 48
64 66 66 76 88 109 121 128 115 106 100 78 59 33 50 48 41 3 0 0 0 0 0 0 0 0 0 0 0 0 0 0 0 0 0 0 0 0 0 0 0 0 0 26 41
52 46 55 57 73 108 101 133 150 117 122 119 97 85 76 95 4 0 11 49 0 0 0 0 0 1 0 0 0 0 0 0 0 0 0 0 0 0 0 0 0 0 0 0 56
59 53 50 65 61 91 112 114 169 139 108 141 126 83 68 29 14 10 0 29 0 0 0 11 27 38 15 2 0 1 0 0 0 0 0 0 0 0 0 0 0 0 0 0 63
63 56 57 65 82 90 115 106 132 184 129 147 143 107 77 3 0 0 65 46 2 4 29 38 60 59 38 12 15 14 0 0 0 0 0 0 0 0 0 0 0 0 0 0 6
74 75 69 66 83 99 109 119 105 195 175 149 207 125 56 20 0 0 55 99 66 53 63 67 88 70 43 23 5 3 0 0 0 0 0 0 0 0 0 0 0 0 0 0 0
68 59 77 80 77 89 106 133 108 129 225 161 229 87 30 10 5 13 50 52 76 87 100 92 105 61 55 31 4 2 8 0 0 0 0 0 0 0 0 0 0 0 0 0 0
73 64 66 73 72 69 90 125 116 136 194 206 59 87 7 14 11 54 51 69 68 78 88 52 78 78 38 8 8 35 0 0 0 0 0 0 0 0 0 0 0 0 0 0 0
80 81 81 87 85 91 95 132 130 166 162 103 47 70 6 8 58 95 110 74 97 112 46 84 77 35 0 50 5 3 4 0 0 1 0 0 0 0 0 0 0 0 0 0 0
102 108 113 107 105 110 102 118 65 78 45 21 13 0 0 0 0 79 75 113 86 86 52 97 47 2 0 17 1 0 0 1 0 0 0 0 0 0 0 0 0 0 0 0 0
118 131 105 109 110 135 94 54 0 37 61 6 9 1 0 0 32 43 142 102 74 41 44 46 9 0 0 0 7 7 6 0 0 1 0 0 0 0 0 0 0 0 0 0 0
131 155 133 150 160 142 75 10 46 38 34 79 9 2 0 13 3 11 182 154 31 59 33 32 0 0 0 0 12 2 10 0 1 14 0 0 0 0 0 0 0 0 0 0 0
145 134 127 188 132 49 32 27 92 11 28 5 62 6 5 16 42 17 181 115 81 38 48 75 0 19 0 0 0 1 0 10 13 19 0 12 0 0 0 0 0 0 0 0 0
167 177 153 176 55 33 27 55 42 117 82 7 12 1 9 21 0 9 92 173 30 1 42 7 5 12 37 0 12 0 3 6 22 32 13 0 1 0 0 0 0 0 0 0 0
164 233 260 186 104 13 21 56 19 28 44 1 1 2 3 27 10 88 160 113 85 66 1 10 0 3 0 17 16 10 31 16 28 28 23 0 0 0 0 0 0 0 0 0 0
194 194 226 158 29 50 85 149 33 45 0 1 5 11 8 10 27 75 138 69 38 30 24 3 0 0 0 13 20 10 7 5 1 3 0 0 0 0 0 0 0 0 0 0 0
225 219 151 100 102 120 115 12 8 0 2 0 7 26 39 25 31 68 43 45 49 9 27 6 0 0 0 2 8 1 21 1 8 0 0 0 0 0 0 0 0 0 0 0 0
280 108 38 48 114 128 79 28 0 4 0 8 17 61 3 17 5 25 17 10 3 15 1 11 6 0 0 0 0 2 4 1 1 0 0 0 0 0 0 0 0 0 0 0 0
165 78 20 19 20 44 34 96 36 41 26 63 50 34 11 7 17 14 26 0 8 7 6 12 2 2 5 3 1 0 1 1 4 0 0 0 0 0 0 0 0 0 0 0 0
85 6 3 24 57 2 0 16 1 13 121 79 25 8 39 2 0 1 0 0 0 9 27 62 6 3 6 12 5 15 17 6 0 1 0 0 0 0 0 0 0 0 0 0 0
41 4 60 49 18 0 36 0 11 1 25 98 98 21 38 9 20 3 0 0 1 0 90 26 33 1 1 0 0 0 3 14 3 0 0 0 0 0 0 0 0 0 0 0 0
0 56 109 2 0 13 1 2 11 13 8 11 61 63 29 50 36 0 0 3 0 4 17 11 3 0 1 0 0 9 4 14 26 2 0 0 0 0 0 0 0 0 0 0 0
1 15 82 35 1 7 7 19 77 35 8 2 39 119 43 83 1 14 5 0 3 12 123 3 8 6 2 7 1 29 17 23 39 3 0 0 0 0 0 0 0 0 0 0 0
3 31 3 6 6 20 24 0 106 82 27 8 5 9 8 0 2 3 0 0 0 47 20 12 8 1 10 1 48 38 37 25 43 0 0 0 0 0 0 0 0 0 0 0 0
0 4 1 0 0 0 0 28 1 33 50 6 0 0 1 0 0 0 0 0 0 14 44 27 5 2 7 0 1 31 26 49 16 3 0 0 0 0 0 0 0 0 0 0 0
3 15 0 0 1 2 1 0 1 29 4 0 0 0 0 0 0 0 0 0 0 24 63 50 11 1 1 0 0 0 0 2 7 43 27 3 0 0 0 0 0 0 0 0 0

GFSSW_con_sbcape_135.txt.gz
CAPE
73 72 77 89 93 101 89 88 44 27 14 29 19 0 0 0 0 0 0 0 0 0 0 0 0 0 0 0 0 0 0 0 0 0 0 0 0 0 0 0 0 0 0 5 20
79 92 62 80 91 99 102 103 85 47 27 26 37 7 5 17 28 25 0 0 0 0 0 0 0 0 0 0 0 0 0 0 0 0 0 0 0 0 0 0 0 0 6 41 20
68 71 77 56 76 103 90 96 108 87 41 26 40 25 25 36 52 0 22 47 0 0 0 0 0 0 0 0 0 0 0 0 0 0 0 0 0 0 0 0 0 0 6 22 8
81 82 78 88 74 75 102 98 90 112 71 30 50 43 51 60 0 0 0 30 0 0 0 0 0 0 0 0 0 0 0 0 0 0 0 0 0 0 0 0 0 0 0 33 18
74 77 70 71 71 65 78 101 108 111 86 62 55 63 22 21 9 7 45 26 0 0 0 0 0 0 0 0 0 0 0 0 0 0 0 0 0 0 0 0 0 0 0 34 39
79 84 81 80 86 84 95 124 114 107 136 84 76 75 63 48 0 14 106 27 0 0 0 0 0 0 0 0 0 0 0 0 0 0 0 0 0 0 0 0 0 0 0 0 50
79 76 78 83 83 82 94 117 135 91 123 129 110 78 26 6 0 0 81 119 69 35 32 7 0 5 0 0 0 0 0 0 0 0 0 0 0 0 0 0 0 0 0 0 0
73 75 71 88 87 82 82 91 147 113 81 161 140 56 4 1 0 0 32 79 103 69 43 23 10 1 5 0 0 0 0 0 0 0 0 0 0 0 0 0 0 0 0 0 0
73 70 82 85 91 94 88 81 96 140 121 137 19 5 0 0 0 29 56 71 53 39 2 39 42 9 3 41 11 5 0 0 0 0 0 0 0 0 0 0 0 0 0 0 0
77 78 88 88 88 82 84 85 66 91 76 83 31 18 0 37 6 0 26 64 65 38 17 26 12 3 2 41 9 2 0 0 0 0 0 0 0 0 0 0 0 0 0 0 0
87 96 122 120 111 89 60 16 0 10 37 12 21 0 0 0 0 0 50 51 43 45 36 19 0 2 5 3 0 0 0 0 0 0 0 0 0 0 0 0 0 0 0 0 0
91 94 119 162 133 127 43 12 0 2 10 17 9 0 0 0 0 43 48 76 71 19 1 24 5 0 0 0 9 6 2 0 0 0 0 0 0 0 0 0 0 0 0 0 0
112 107 117 171 209 138 21 5 2 19 26 28 8 10 0 0 1 0 66 8 15 18 21 11 0 0 0 0 0 0 0 0 0 0 0 0 0 0 0 0 0 0 0 0 0
149 122 135 212 117 6 24 12 45 16 29 8 73 8 3 13 4 25 88 54 54 2 24 19 0 0 0 0 0 0 0 0 0 0 0 0 0 0 0 0 0 0 0 0 0
159 133 173 157 0 0 18 34 55 6 10 1 6 2 0 0 0 0 78 73 8 19 22 0 0 0 0 0 0 0 1 0 9 25 7 0 14 0 0 0 0 0 0 0 0
134 145 159 130 6 0 26 43 41 14 1 4 4 7 22 9 0 15 82 46 7 17 3 0 0 0 0 0 0 0 23 7 0 9 22 0 3 0 0 0 0 0 0 0 0
144 159 140 34 8 13 55 82 58 11 0 0 3 23 11 20 5 46 28 72 31 36 23 4 0 0 0 15 48 72 46 27 42 5 0 0 0 0 0 0 0 0 0 0 0
186 171 127 32 6 36 77 25 33 0 0 0 1 0 27 20 6 8 38 68 36 1 0 12 10 0 0 2 3 16 46 88 3 2 0 0 0 0 0 0 0 0 0 0 0
219 83 33 28 28 38 63 25 4 0 0 13 12 41 36 35 41 33 36 14 9 2 0 4 3 0 0 0 11 2 47 2 4 1 0 0 0 0 0 0 0 0 0 0 0
80 42 34 54 76 88 15 55 25 1 2 7 26 20 18 30 34 25 24 5 8 2 0 0 2 0 0 1 5 4 0 1 2 0 5 0 0 0 0 0 0 0 0 0 0
48 18 4 18 24 35 16 10 2 0 3 30 20 28 20 55 5 7 0 5 1 9 0 0 0 1 0 6 3 7 10 1 2 2 1 0 0 0 0 0 0 0 0 0 0
32 0 1 9 0 0 0 0 0 1 46 30 34 55 18 11 0 16 0 0 0 0 8 0 0 1 0 0 1 17 20 4 1 1 0 0 0 0 0 0 0 0 0 0 0
0 35 20 1 0 4 3 0 1 3 2 47 4 26 49 106 59 44 0 0 4 8 0 0 1 0 2 1 2 6 2 3 0 0 1 3 0 0 0 0 0 0 0 0 0
1 44 22 4 1 0 2 0 16 6 0 0 4 5 40 6 29 3 0 0 0 0 64 56 1 0 0 0 0 3 2 5 1 0 1 1 2 0 0 0 0 0 0 0 0
1 0 4 4 0 0 0 4 0 27 1 0 0 1 25 59 20 16 8 23 1 14 49 58 0 0 0 0 0 0 0 0 25 22 40 0 2 0 0 0 0 0 0 0 0
0 1 0 0 0 0 0 0 4 49 6 1 1 0 0 0 0 0 0 0 0 1 1 0 2 0 0 0 0 0 0 0 0 4 0 0 0 0 0 0 0 0 0 0 0
0 0 0 0 0 0 0 0 0 5 0 0 0 4 0 0 2 0 0 0 1 15 3 1 0 0 0 0 0 0 0 0 0 0 3 11 0 0 0 0 0 0 0 0 0

GFSSW_con_sbcape_138.txt.gz
CAPE
105 77 66 73 77 76 55 61 36 0 0 0 0 0 0 0 0 1 0 0 0 0 0 0 0 0 0 0 0 0 0 0 0 0 0 0 0 0 0 0 0 0 0 0 0
106 100 79 70 86 76 80 83 73 31 0 0 2 8 0 0 0 0 0 8 0 0 0 0 0 0 0 0 0 0 0 0 0 0 0 0 0 0 0 0 0 0 1 0 0
99 97 105 76 75 81 69 77 69 62 35 0 0 17 5 16 0 0 0 0 30 0 0 0 0 0 0 0 0 0 0 0 0 0 0 0 0 0 0 0 0 0 1 58 29
93 79 78 83 68 62 79 73 65 75 75 30 0 36 36 32 0 0 5 3 44 0 0 0 0 0 0 0 0 0 0 0 0 0 0 0 0 0 0 0 0 0 0 0 23
76 88 84 81 88 38 61 85 74 77 80 55 29 50 45 18 6 24 23 31 0 0 0 0 0 0 0 0 0 0 0 0 0 0 0 0 0 0 0 0 0 0 0 19 13
73 78 93 87 80 36 51 93 100 90 76 85 64 73 64 17 0 24 38 12 0 0 0 0 0 0 0 0 0 0 0 0 0 0 0 0 0 0 0 0 0 0 0 0 24
81 93 106 91 89 76 75 98 134 95 79 117 113 45 27 0 0 0 0 13 21 0 0 0 0 0 0 1 0 0 0 0 0 0 0 0 0 0 0 0 0 0 0 0 0
86 98 97 91 90 94 95 77 107 113 75 95 114 42 1 0 0 0 0 5 19 0 0 1 9 14 30 2 0 0 0 0 0 0 0 0 0 0 0 0 0 0 0 0 0
74 70 80 111 112 93 118 86 44 101 92 85 24 0 0 0 0 0 3 43 11 10 0 13 21 27 10 42 30 13 4 0 0 0 0 0 0 0 0 0 0 0 0 0 0
95 87 92 110 121 110 113 91 68 40 60 48 9 0 0 0 0 0 12 46 31 4 24 35 9 25 29 36 3 1 1 0 0 0 0 0 0 0 0 0 0 0 0 0 0
109 106 110 108 124 132 73 0 0 0 39 12 35 0 0 0 0 0 0 48 36 40 26 7 25 4 15 14 9 0 0 0 0 0 0 0 0 0 0 0 0 0 0 0 0
120 107 118 132 171 138 27 0 0 0 0 0 8 1 0 0 16 1 0 64 73 32 6 8 16 0 0 0 5 1 3 0 0 0 0 0 0 0 0 0 0 0 0 0 0
130 111 121 129 132 137 25 21 3 2 1 0 1 16 0 0 0 9 11 30 32 13 2 4 0 0 0 0 3 2 0 0 0 0 0 0 0 0 0 0 0 0 0 0 0
120 109 143 132 75 17 38 20 24 5 6 0 18 16 7 10 0 0 42 30 33 32 22 13 0 0 0 0 0 0 0 0 0 1 0 0 0 0 0 0 0 0 0 0 0
126 127 126 125 0 13 3 44 25 3 6 0 0 0 0 0 0 0 38 9 6 8 2 0 0 3 0 0 0 0 0 0 0 0 1 0 7 0 0 0 0 0 0 0 0
131 146 139 114 0 0 30 71 1 0 0 0 0 5 7 3 0 32 17 7 0 7 1 0 0 0 0 0 0 0 7 2 0 0 13 0 0 0 0 0 0 0 0 0 0
139 181 110 28 3 1 69 50 19 4 0 0 13 28 4 11 8 34 35 34 19 24 6 4 2 0 1 11 7 12 34 20 51 20 1 0 0 0 0 0 0 0 0 0 0
143 177 103 14 7 21 37 11 19 0 0 0 4 22 11 2 18 12 30 30 13 0 0 4 19 17 2 18 1 0 3 1 0 0 0 0 1 0 0 0 0 0 0 0 0
193 54 31 21 21 49 28 11 0 0 0 0 2 8 15 16 8 19 35 17 7 6 0 0 0 0 0 0 6 4 34 0 31 0 0 0 0 0 0 0 0 0 0 0 0
83 36 16 26 28 66 15 28 0 0 0 14 5 2 15 3 34 19 17 6 11 6 0 0 0 0 0 0 3 22 1 50 31 18 1 0 0 0 0 0 0 0 0 0 0
44 5 3 18 43 13 13 9 0 0 6 2 3 14 1 21 16 15 12 0 6 20 12 1 0 0 0 3 2 4 41 46 14 9 11 0 0 0 0 0 0 0 0 0 0
7 2 10 58 10 0 2 0 0 0 1 12 6 0 5 10 22 1 4 0 0 6 12 5 6 4 1 0 0 1 0 11 7 0 1 0 0 0 0 0 0 0 0 0 0
0 4 48 42 3 0 0 0 0 1 17 8 8 20 6 58 81 21 6 0 0 14 10 11 11 0 8 0 1 5 1 5 12 1 1 0 0 0 0 0 0 0 0 0 0
0 1 54 25 1 0 0 0 1 1 2 44 10 46 64 24 11 25 12 1 1 9 25 32 0 0 0 0 0 5 33 12 47 7 0 0 0 0 0 0 0 0 0 0 0
4 1 0 8 0 0 0 0 0 15 0 1 1 25 0 41 24 56 1 0 5 3 65 119 60 0 0 0 0 0 0 8 3 0 1 0 0 0 0 0 0 0 0 0 0
1 0 1 0 0 0 0 0 1 0 0 0 4 0 3 37 25 0 0 35 29 4 79 104 32 0 0 0 0 0 0 3 0 0 0 0 0 0 0 0 0 0 0 0 0
0 0 0 1 0 0 0 0 0 8 12 0 0 0 0 0 1 16 0 2 4 21 40 99 0 0 0 0 0 0 0 0 0 0 0 0 0 0 0 0 0 0 0 0 0

GFSSW_con_sbcape_141.txt.gz
CAPE
84 86 65 105 99 72 41 48 7 0 0 0 0 0 0 0 0 0 0 0 0 0 0 0 0 0 0 0 0 0 0 0 0 0 0 0 0 0 0 0 0 0 0 0 0
87 106 108 105 83 82 92 93 66 19 0 0 0 0 0 0 0 0 0 0 0 0 0 0 0 0 0 0 0 0 0 0 0 0 0 0 0 0 0 0 0 0 0 0 0
102 148 130 99 116 84 84 99 85 64 30 0 0 0 0 0 0 0 0 0 0 0 0 0 0 0 0 0 0 0 0 0 0 0 0 0 0 0 0 0 0 0 0 1 5
63 115 114 105 108 125 100 83 69 77 80 28 0 0 24 13 0 0 0 1 0 0 0 0 0 0 0 0 0 0 0 0 0 0 0 0 0 0 0 0 0 0 0 0 0
73 70 82 79 101 105 123 95 75 66 85 80 24 49 13 3 0 0 0 11 0 0 0 0 0 0 0 0 0 0 0 0 0 0 0 0 0 0 0 0 0 0 0 0 0
77 63 81 69 85 89 102 131 91 76 81 111 78 75 39 5 0 1 0 5 0 0 0 0 0 0 0 0 0 0 0 0 0 0 0 0 0 0 0 0 0 0 0 0 0
118 74 92 87 90 118 94 99 145 90 82 94 110 31 27 0 0 0 0 3 8 0 0 0 0 0 0 9 0 0 0 0 0 0 0 0 0 0 0 0 0 0 0 0 0
100 79 78 90 113 119 133 93 99 114 111 89 105 1 0 0 0 0 0 0 13 0 0 0 0 36 37 14 2 0 0 0 0 0 0 0 0 0 0 0 0 0 0 0 0
71 79 85 74 97 103 130 120 77 80 112 73 38 0 0 0 0 0 0 0 11 20 2 3 15 40 35 48 19 3 0 0 0 0 0 0 0 0 0 0 0 0 0 0 0
81 78 93 90 111 112 93 84 77 24 72 56 5 0 0 0 0 0 0 0 2 0 13 8 3 9 36 41 2 0 1 0 0 0 0 0 0 0 0 0 0 0 0 0 0
131 92 82 83 79 109 97 0 0 6 34 14 24 0 0 0 0 0 28 29 20 53 35 2 21 5 0 0 0 1 0 0 0 0 0 0 0 0 0 0 0 0 0 0 0
123 123 109 94 117 99 12 0 0 0 1 0 13 2 0 0 0 0 0 18 59 29 16 5 16 0 2 6 3 8 8 0 3 2 0 0 0 0 0 0 0 0 0 0 0
95 104 133 117 117 66 18 0 3 1 10 0 0 24 1 0 0 0 0 6 24 8 8 5 0 0 0 0 3 0 3 1 0 0 0 0 0 0 0 0 0 0 0 0 0
143 136 98 94 35 1 31 1 11 0 12 0 1 9 18 10 0 0 1 0 33 9 10 6 0 1 0 4 2 4 0 0 0 15 0 0 0 0 0 0 0 0 0 0 0
115 159 123 85 1 5 0 3 2 4 3 0 0 0 0 0 0 0 24 9 0 15 23 0 1 0 1 4 0 1 0 0 0 0 0 0 4 0 0 0 0 0 0 0 0
107 126 124 36 0 0 6 12 0 0 0 0 0 15 8 4 7 16 16 1 0 6 0 0 0 0 1 0 0 0 3 1 0 1 4 0 0 0 0 0 0 0 0 0 0
140 117 93 2 0 11 45 38 5 0 0 0 5 19 14 10 19 27 17 25 1 20 4 11 2 0 1 1 0 1 5 2 5 17 1 0 0 0 0 0 0 0 0 0 0
153 160 46 19 0 19 24 3 0 0 0 0 1 7 13 12 8 22 19 15 5 0 0 4 3 8 5 8 1 3 2 0 0 0 0 0 0 0 0 0 0 0 0 0 0
173 52 25 14 3 26 13 0 0 0 0 0 17 10 19 6 5 11 22 20 7 5 2 0 0 0 0 0 0 0 36 0 1 0 2 0 0 0 0 0 0 0 0 0 0
42 23 24 11 8 23 1 4 0 0 0 0 0 5 5 11 14 20 14 6 14 6 0 0 0 0 0 1 8 13 0 29 24 19 9 2 0 0 0 0 0 0 0 0 0
16 4 9 11 21 7 1 0 0 0 0 0 0 0 0 2 2 16 0 0 3 10 12 3 0 0 0 2 2 2 17 10 0 11 7 0 0 0 0 0 0 0 0 0 0
6 0 6 19 6 0 8 0 0 0 0 6 0 0 0 0 25 33 17 0 0 0 21 17 29 1 0 0 0 0 0 0 7 0 0 0 0 0 0 0 0 0 0 0 0
0 2 3 27 1 0 0 1 0 0 0 1 2 0 0 8 42 14 9 0 0 0 18 20 20 6 12 1 5 11 6 0 0 0 0 8 0 0 0 0 0 0 0 0 0
0 1 30 3 1 0 0 0 0 0 0 1 7 10 0 15 16 12 6 0 0 16 34 8 18 0 0 0 0 6 0 0 3 17 0 0 0 0 0 0 0 0 0 0 0
2 0 0 1 0 1 0 0 0 2 0 0 1 20 0 0 3 27 15 10 0 18 54 78 6 3 0 0 0 0 0 0 28 0 3 0 0 0 0 0 0 0 0 0 0
2 0 0 0 0 1 0 1 0 2 0 0 38 0 2 2 0 0 3 12 35 0 96 4 56 8 1 0 0 0 0 0 0 0 19 0 0 0 0 0 0 0 0 0 0
1 0 0 2 0 11 0 0 0 2 12 0 0 0 20 0 0 0 23 16 14 22 0 0 1 0 0 0 0 3 0 0 0 1 0 0 0 0 0 0 0 0 0 0 0

GFSSW_con_sbcape_144.txt.gz
CAPE
86 71 68 88 83 63 35 8 10 0 0 0 0 0 0 0 0 0 0 0 0 0 0 0 0 0 0 0 0 0 0 0 0 0 0 0 0 0 0 0 0 0 0 0 0
88 96 72 84 73 103 98 97 74 26 0 0 0 0 0 0 0 0 0 0 0 0 0 0 0 0 0 0 0 0 0 0 0 0 0 0 0 0 0 0 0 0 0 0 0
100 98 104 99 90 96 83 87 95 76 22 0 0 0 0 0 0 0 0 0 0 0 0 0 0 0 0 0 0 0 0 0 0 0 0 0 0 0 0 0 0 0 0 0 0
98 125 131 128 90 83 84 103 82 99 64 29 0 0 0 0 0 0 0 2 0 0 0 0 0 0 0 0 0 0 0 0 0 0 0 0 0 0 0 0 0 0 0 0 0
88 98 118 129 151 138 101 82 64 80 93 80 13 34 1 5 0 0 0 0 0 0 0 0 0 0 0 0 0 0 0 0 0 0 0 0 0 0 0 0 0 0 0 0 0
92 90 96 89 94 85 101 93 93 82 76 101 64 62 12 0 0 0 0 0 0 0 0 0 0 0 0 0 0 0 0 0 0 0 0 0 0 0 0 0 0 0 0 0 0
69 66 81 87 75 74 86 90 104 80 72 81 105 18 23 0 0 0 0 0 0 0 0 0 0 0 0 0 0 0 0 0 0 0 0 0 0 0 0 0 0 0 0 0 0
81 62 79 82 80 74 70 78 93 86 75 67 97 0 0 0 0 0 0 0 0 0 0 0 0 23 30 2 1 0 0 0 0 0 0 0 0 0 0 0 0 0 0 0 0
62 67 81 78 88 94 96 92 72 85 44 69 43 1 0 0 0 0 0 0 4 11 5 5 13 29 13 20 17 3 0 0 0 0 0 0 0 0 0 0 0 0 0 0 0
77 64 83 90 82 105 119 99 72 45 39 54 8 2 0 0 0 0 0 0 12 1 12 10 16 25 41 26 1 0 3 0 0 0 0 0 0 0 0 0 0 0 0 0 0
78 92 97 95 91 122 70 0 0 22 16 1 42 16 0 0 0 0 0 0 40 59 30 14 34 4 0 0 0 1 0 0 0 0 0 0 0 0 0 0 0 0 0 0 0
144 129 142 121 120 124 3 0 0 0 1 0 1 4 0 0 0 0 0 0 44 22 9 16 8 1 0 0 0 4 9 3 0 0 0 0 0 0 0 0 0 0 0 0 0
129 133 168 182 131 62 3 0 0 0 3 0 0 24 1 0 0 0 0 0 28 22 31 2 0 0 0 0 2 4 4 0 0 0 0 0 0 0 0 0 0 0 0 0 0
117 135 172 178 68 1 29 1 0 0 2 0 0 0 9 0 0 0 0 0 20 15 12 15 0 0 0 4 1 8 0 0 0 8 0 0 0 0 0 0 0 0 0 0 0
136 141 132 148 0 15 0 0 0 11 0 0 0 0 0 2 0 0 0 11 3 0 4 0 0 0 1 0 0 8 0 0 0 0 0 0 5 0 0 0 0 0 0 0 0
137 163 141 46 0 0 4 0 0 11 0 0 2 26 14 12 5 1 23 0 0 2 0 0 0 0 0 0 0 0 14 4 0 0 5 0 0 0 0 0 0 0 0 0 0
177 183 77 1 1 0 6 9 5 0 0 0 3 31 9 15 14 28 6 15 1 19 10 6 0 0 0 13 7 21 25 22 11 9 0 0 0 0 0 0 0 0 0 0 0
163 171 67 3 0 10 5 0 2 0 0 0 0 4 8 2 9 30 16 10 13 0 0 8 6 9 2 17 6 8 1 2 0 0 0 0 0 0 0 0 0 0 0 0 0
208 59 24 1 7 0 3 0 0 0 0 0 0 7 19 7 1 24 24 0 0 6 0 0 0 0 0 0 0 0 0 0 0 0 0 0 0 0 0 0 0 0 0 0 0
65 34 23 7 0 4 0 0 0 0 0 0 0 0 0 12 6 16 15 0 6 7 0 0 1 0 0 1 1 0 0 12 16 4 0 0 0 0 0 0 0 0 0 0 0
44 41 20 6 9 2 0 0 0 0 0 0 0 0 0 3 4 3 0 0 0 0 6 6 4 0 1 10 4 6 16 23 0 0 5 0 0 0 0 0 0 0 0 0 0
17 8 0 24 10 0 0 0 0 0 0 0 0 0 0 0 1 7 0 0 0 0 5 2 23 7 0 0 0 13 0 5 14 6 0 0 0 0 0 0 0 0 0 0 0
0 1 16 10 0 0 0 0 0 0 0 0 0 0 0 8 47 11 0 0 0 0 12 4 6 12 3 4 14 18 7 12 13 0 0 1 0 0 0 0 0 0 0 0 0
0 0 17 2 0 0 0 0 0 0 0 0 0 0 0 9 1 6 11 8 0 2 44 36 20 5 0 0 0 8 2 0 4 18 0 0 0 0 0 0 0 0 0 0 0
0 0 0 0 0 0 0 0 0 1 0 0 0 0 0 1 0 30 37 20 35 10 52 51 34 11 0 0 0 0 3 4 2 0 6 0 0 0 0 0 0 0 0 0 0
0 0 0 0 0 0 0 0 0 1 0 0 0 0 0 2 0 2 21 15 27 2 38 31 8 30 0 0 0 0 0 0 15 0 7 0 0 0 0 0 0 0 0 0 0
4 0 0 3 0 0 0 0 0 0 0 0 0 0 0 0 0 0 0 0 4 21 34 39 4 0 0 0 3 2 0 0 0 0 0 0 0 0 0 0 0 0 0 0 0

GFSSW_con_sbcape_147.txt.gz
CAPE
131 114 84 102 96 42 9 5 0 0 0 0 0 0 0 0 0 0 0 0 0 0 0 0 0 0 0 0 0 0 0 0 0 0 0 0 0 0 0 0 0 0 0 0 0
88 99 85 77 82 96 93 73 40 0 0 0 0 0 0 0 0 0 0 0 0 0 0 0 0 0 0 0 0 0 0 0 0 0 0 0 0 0 0 0 0 0 0 0 0
76 89 112 104 86 87 78 87 62 28 3 0 0 0 0 0 0 0 0 0 0 0 0 0 0 0 0 0 0 0 0 0 0 0 0 0 0 0 0 0 0 0 0 0 0
93 98 84 91 109 90 92 80 68 45 53 14 0 0 0 0 0 0 8 15 0 0 0 0 0 0 0 0 0 0 0 0 0 0 0 0 0 0 0 0 0 0 0 0 0
82 90 97 114 138 102 101 99 65 58 82 52 8 16 2 0 0 0 0 0 0 0 0 0 0 0 0 0 0 0 0 0 0 0 0 0 0 0 0 0 0 0 0 0 0
82 67 86 106 162 123 103 98 88 64 73 93 45 45 0 0 0 0 0 0 0 0 0 0 0 0 0 0 0 0 0 0 0 0 0 0 0 0 0 0 0 0 0 0 0
83 75 86 131 126 119 102 73 75 71 68 79 79 1 0 0 0 0 0 0 0 0 0 0 0 0 0 0 0 0 0 0 0 0 0 0 0 0 0 0 0 0 0 0 0
97 53 79 94 108 82 75 70 80 68 50 72 74 0 0 0 0 0 0 0 0 0 0 0 0 1 1 0 0 0 0 0 0 0 0 0 0 0 0 0 0 0 0 0 0
127 65 93 78 82 81 66 48 67 70 69 94 30 0 0 0 0 0 0 0 0 0 0 2 11 9 6 0 0 0 0 0 0 0 0 0 0 0 0 0 0 0 0 0 0
110 98 100 91 77 85 95 89 90 31 45 10 9 3 0 0 0 0 0 0 6 0 22 20 13 13 6 8 0 0 1 0 0 0 0 0 0 0 0 0 0 0 0 0 0
89 109 116 106 120 122 52 0 0 9 3 0 17 1 0 0 0 0 0 0 20 20 17 18 15 2 1 0 0 0 0 0 0 0 0 0 0 0 0 0 0 0 0 0 0
136 116 147 156 161 133 0 0 0 0 0 0 0 0 0 0 0 0 0 0 12 21 2 21 12 0 0 0 3 2 0 0 0 1 0 0 0 0 0 0 0 0 0 0 0
172 189 163 151 152 74 0 0 0 0 0 0 0 0 0 0 0 0 0 1 19 21 20 1 0 0 1 0 0 0 0 0 0 0 0 0 0 0 0 0 0 0 0 0 0
241 204 181 168 59 0 8 0 0 0 0 0 0 0 0 0 0 0 0 0 38 8 3 5 0 0 0 6 0 0 0 0 2 12 0 0 0 0 0 0 0 0 0 0 0
242 226 184 153 0 4 0 0 0 0 0 0 0 0 0 0 0 0 0 7 9 4 1 0 0 0 3 8 1 13 1 4 5 0 0 0 0 0 0 0 0 0 0 0 0
194 168 177 1 0 0 0 0 0 0 0 0 2 23 16 12 2 7 0 0 0 2 0 0 0 0 0 0 7 0 6 0 0 0 6 0 0 0 0 0 0 0 0 0 0
144 127 85 0 1 0 10 10 6 9 0 0 2 21 4 21 41 33 6 1 0 7 3 2 0 0 0 2 0 19 27 8 0 7 0 0 0 0 0 0 0 0 0 0 0
19 65 35 0 0 18 25 1 0 0 0 0 0 9 1 15 16 31 19 7 0 0 0 0 1 0 0 0 2 1 1 0 0 0 0 0 0 0 0 0 0 0 0 0 0
57 35 8 0 5 10 3 1 0 0 0 0 0 8 14 3 0 21 9 2 5 0 0 0 0 0 0 0 0 4 27 0 0 0 0 0 0 0 0 0 0 0 0 0 0
28 20 32 1 11 0 0 0 0 0 0 0 0 0 1 1 0 6 5 0 0 0 0 0 0 0 0 3 2 0 1 6 2 0 0 0 0 0 0 0 0 0 0 0 0
25 6 6 24 40 2 0 0 0 0 0 0 0 0 0 0 0 0 0 0 0 0 0 1 15 0 1 2 0 0 14 2 0 0 0 0 0 0 0 0 0 0 0 0 0
18 0 31 40 6 0 0 0 0 0 0 0 0 0 0 0 0 0 0 0 0 0 0 0 12 8 0 0 3 14 23 23 22 2 0 0 0 0 0 0 0 0 0 0 0
0 1 0 9 0 0 0 1 0 0 0 0 0 0 0 0 3 0 0 0 0 0 12 9 5 12 1 0 8 19 17 16 27 0 0 21 0 0 0 0 0 0 0 0 0
0 0 7 20 2 1 0 0 0 0 0 0 0 0 0 0 0 0 0 0 0 2 39 31 4 0 0 0 0 5 0 4 15 17 0 0 0 0 0 0 0 0 0 0 0
0 0 1 8 9 0 0 0 0 0 0 0 0 0 0 0 0 1 1 5 20 9 29 27 1 0 0 0 0 2 7 2 24 0 16 0 0 0 0 0 0 0 0 0 0
0 1 0 0 1 0 0 0 0 0 0 0 0 0 0 0 0 0 19 22 21 19 25 7 7 7 0 0 5 0 0 0 12 10 19 1 0 0 0 0 0 0 0 0 0
2 2 0 2 4 4 0 0 0 0 0 0 0 0 0 0 0 0 0 0 11 39 55 38 28 3 0 0 1 5 0 0 0 0 3 0 0 0 0 0 0 0 0 0 0